STARLINK-4592 (53634 NORAD) Tracking and Keplerian Element Data

This shows tracking and keplerian element data for the satellite.

Feedback or suggestion? Click here.




ElementValue
Catalog53634
NameSTARLINK-4592
Epoch Orbit130
Epoch Day324.91667824
Epoch Year2022
RAAN232.7327
Inclination53.2176
Eccentricity0.0001366
Argument of Perigee55.8084
Mean Anonmoly275.6299
Mean Motion15.22763141
Decay Rate-0.01149462
L11 53634U 22104AY 22324.91667824 -.01149462 00000+0 -52683-1 0 9999
L22 53634 53.2176 232.7327 0001366 55.8084 275.6299 15.22763141 1305



Live tracking and technical data element details for STARLINK-4592 (NORAD 53634). STARLINK-4592 can be tracked NOW for your location showing map with azimuth and elevation plus other details from your city location.







IsCatalogInMostPopularTable: catalog: 53634, numindb: 2
Update: records affected: 1



GetName: 53634 STARLINK-4592

Hit Count: updated at: Thu, 08 Dec 2022 20:54:47 GMT